[[{"header":{"parameterUnit":"m.s-1","parameterCategory":1,"la1":30.2991,"la2":30.254,"lo1":-89.0895,"lo2":-89.0444,"dy":0.0017,"dx":0.0017,"nx":28,"ny":28,"refTime":"2025-01-31T09:00:00:Z","depth":0,"parameterNumber":2,"parameterNumberName":"U-component_of_WINDS"},"data":[0,0,0,0,0,0,0,0,0,0,0,0,0,0,0,0,0,0,0,0,0,0,0,0,0,0,0,0,0,0,0,0,0,0,0,0,0,0,0,0,0,0,0,0,0,0,0,0,0,0,0,0,0,0,0,0,0,0,0.7669,0.767,0,0.7775,0.7776,0.7777,0.7804,0.7803,0.7802,0.7802,0.7913,0.7917,0.792,0,0,0,0,0,0,0,0,0,0,0,0,0,0.749,0.7493,0.7668,0.767,0.7671,0.7775,0.7776,0.7778,0.7804,0.7803,0.7802,0.7801,0.7912,0.7916,0.7921,0,0,0,0,0,0,0,0,0,0,0,0,0,0.7579,0.7494,0.7668,0.7697,0.77,0.7774,0.7776,0.7778,0.7804,0.7803,0.7802,0.7801,0.7911,0.7916,0.7921,0.7976,0,0,0.7938,0.794,0,0,0,0,0,0,0,0,0.7574,0.7585,0.7691,0.7695,0.7699,0.7775,0.7754,0.7844,0.7804,0.7765,0.7802,0.78,0.7868,0.7877,0.7899,0.7981,0.7986,0.7938,0.7942,0.7944,0.7946,0,0,0,0,0,0,0,0.7568,0.7581,0.7711,0.7693,0.7697,0.7705,0.7716,0.7771,0.7821,0.7768,0.777,0.7782,0.787,0.7894,0.7902,0.7987,0.7938,0.7943,0.7946,0.7949,0.8117,0.8119,0,0,0,0,0,0,0.7556,0.7576,0.7707,0.7714,0.7632,0.7709,0.7722,0.7752,0.7821,0.783,0.7783,0.7783,0.7885,0.7896,0.7906,0.7974,0.7944,0.7949,0.7952,0.8116,0.8118,0.8119,0,0,0,0,0,0,0.7552,0.7568,0.7703,0.7645,0.7663,0.7713,0.7746,0.7754,0.7778,0.7832,0.7841,0.7798,0.7885,0.7899,0.7958,0.7978,0.7952,0.7956,0.8115,0.8117,0.8118,0.8109,0,0,0,0,0,0,0.7547,0.7566,0.7587,0.7646,0.7666,0.7752,0.7748,0.7757,0.7787,0.7788,0.7849,0.7858,0.7885,0.7949,0.7963,0.7985,0.7961,0.8113,0.8116,0.8118,0.8108,0.8111,0.8113,0,0,0,0,0,0.754,0.7581,0.7588,0.7604,0.7693,0.7753,0.7765,0.7795,0.7789,0.781,0.7844,0.7856,0.7973,0.7955,0.7971,0.7995,0.8112,0.8115,0.8118,0.8107,0.811,0.8113,0,0,0,0,0,0,0.7525,0.7589,0.7598,0.7658,0.77,0.7758,0.7786,0.7798,0.7843,0.7842,0.7879,0.7892,0.7949,0.7978,0.7956,0.805,0.8043,0.8049,0.8029,0.8033,0.8035,0.8027,0.7965,0,0,0,0,0,0.7528,0.7571,0.7625,0.7674,0.7694,0.7736,0.7764,0.7783,0.7828,0.7846,0.7885,0.7929,0.7975,0.8006,0.8052,0.8112,0.8125,0.8136,0.8138,0.814,0.8145,0.8178,0.8184,0.8128,0.8128,0.8128,0,0,0.7536,0.7577,0.7602,0.7671,0.7706,0.775,0.7751,0.7798,0.7831,0.7854,0.7911,0.7941,0.7992,0.8052,0.808,0.8078,0.8163,0.8144,0.8145,0.8149,0.8182,0.8187,0.8192,0.813,0.813,0.8129,0,0,0.7573,0.7608,0.7652,0.7686,0.7737,0.7765,0.7775,0.7831,0.7851,0.7909,0.7927,0.7967,0.8047,0.8083,0.8111,0.8159,0.8171,0.8173,0.8186,0.8218,0.8223,0.8227,0.8243,0.8249,0.8178,0.8178,0.8178,0,0.7577,0.7643,0.7673,0.7718,0.7748,0.7769,0.7814,0.7846,0.791,0.7931,0.7927,0.8027,0.8063,0.8131,0.8142,0.8165,0.8177,0.8167,0.8219,0.8224,0.8228,0.8244,0.8251,0.8178,0.8178,0.8178,0.8178,0,0.7645,0.769,0.7719,0.778,0.7813,0.7858,0.7894,0.7924,0.794,0.7968,0.8027,0.8071,0.8125,0.8143,0.816,0.8213,0.821,0.8212,0.8205,0.8233,0.8249,0.8255,0.8178,0.8178,0.8178,0.8178,0,0,0.7676,0.7751,0.7761,0.7788,0.7846,0.7882,0.7928,0.798,0.8005,0.8048,0.8087,0.8154,0.8156,0.8188,0.8209,0.8237,0.8271,0.8236,0.8238,0.8241,0.8332,0.833,0.8336,0.8279,0.828,0.8281,0.8327,0,0.772,0.7801,0.7829,0.7896,0.7938,0.7958,0.7998,0.8037,0.8064,0.8104,0.8134,0.818,0.818,0.8199,0.8228,0.8261,0.829,0.8258,0.8316,0.8318,0.8303,0.8345,0.8343,0.8385,0.8334,0.8335,0.8336,0,0.7783,0.7825,0.7897,0.7948,0.7967,0.8002,0.8051,0.8089,0.8135,0.8152,0.8187,0.8205,0.8253,0.8243,0.831,0.8287,0.8312,0.8332,0.8334,0.8341,0.8329,0.8353,0.8399,0.8405,0.8346,0.8345,0.8345,0,0.7798,0.7874,0.7926,0.7948,0.801,0.8034,0.8061,0.8105,0.8134,0.8177,0.8197,0.8245,0.8272,0.831,0.834,0.833,0.8404,0.8396,0.842,0.8419,0.8436,0.8434,0.8486,0.8451,0.8451,0.8451,0.8451,0,0.7845,0.7887,0.7933,0.7965,0.8014,0.8045,0.8092,0.812,0.8158,0.8196,0.8217,0.8252,0.829,0.8331,0.8355,0.8406,0.8418,0.8434,0.844,0.8432,0.843,0.845,0.8447,0.8453,0.8452,0.8452,0.8452,0,0.7871,0.7903,0.7961,0.8014,0.8028,0.8061,0.8106,0.8138,0.8165,0.8213,0.8226,0.8268,0.8316,0.835,0.8413,0.8429,0.8484,0.849,0.8469,0.8472,0.8493,0.8491,0.8559,0.857,0.8528,0.8528,0.8529,0,0.7898,0.7931,0.7987,0.8013,0.8039,0.8082,0.8111,0.8143,0.8173,0.8226,0.8251,0.83,0.8342,0.8418,0.8454,0.8502,0.8509,0.853,0.8517,0.8507,0.8509,0.8507,0.851,0.8532,0.8532,0.8533,0.8533,0,0.7944,0.7958,0.7999,0.8046,0.808,0.8119,0.8157,0.8178,0.8216,0.8249,0.8297,0.8329,0.8392,0.8441,0.8491,0.8519,0.8532,0.8536,0.8544,0.8537,0.8523,0.853,0.8474,0.8535,0.8535,0.8535,0.8534,0.8534,0.7971,0.8001,0.8045,0.809,0.8122,0.8157,0.8189,0.8219,0.826,0.8313,0.8329,0.838,0.8423,0.8493,0.8521,0.8561,0.856,0.8572,0.8575,0.8577,0.8576,0.8516,0.857,0.857,0.857,0.857,0.857,0,0.8018,0.8046,0.8087,0.814,0.8175,0.8183,0.8226,0.8255,0.8299,0.8338,0.8378,0.8433,0.848,0.852,0.8568,0.8592,0.8599,0.8604,0.8603,0.8609,0.8575,0.8563,0.8597,0.8597,0.8597,0.8597,0.8597,0.8597,0.8046,0.8097,0.8115,0.8182,0.821,0.8259,0.8283,0.8316,0.8347,0.8408,0.8446,0.8471,0.851,0.8561,0.8604,0.8615,0.8632,0.8635,0.8646,0.8614,0.8611,0.8608,0.8597,0.8638,0.8638,0.8677,0.8677,0.8677]},{"header":{"parameterUnit":"m.s-1","parameterCategory":1,"la1":30.2991,"la2":30.254,"lo1":-89.0895,"lo2":-89.0444,"dy":0.0017,"dx":0.0017,"nx":28,"ny":28,"refTime":"2025-01-31T09:00:00:Z","depth":0,"parameterNumber":3,"parameterNumberName":"V-component_of_WINDS"},"data":[0,0,0,0,0,0,0,0,0,0,0,0,0,0,0,0,0,0,0,0,0,0,0,0,0,0,0,0,0,0,0,0,0,0,0,0,0,0,0,0,0,0,0,0,0,0,0,0,0,0,0,0,0,0,0,0,0,0,1.5114,1.5114,0,1.5101,1.5101,1.51,1.5124,1.5125,1.5126,1.5127,1.5111,1.511,1.5109,0,0,0,0,0,0,0,0,0,0,0,0,0,1.5156,1.5155,1.5114,1.5114,1.5113,1.5101,1.5101,1.51,1.5124,1.5125,1.5126,1.5127,1.5111,1.511,1.5109,0,0,0,0,0,0,0,0,0,0,0,0,0,1.514,1.5155,1.5114,1.5124,1.5125,1.5101,1.5101,1.51,1.5124,1.5125,1.5127,1.5128,1.5112,1.511,1.5108,1.5073,0,0,1.5103,1.5102,0,0,0,0,0,0,0,0,1.5141,1.5138,1.5123,1.5123,1.5124,1.5116,1.511,1.5091,1.5124,1.5124,1.5127,1.5128,1.5111,1.511,1.5105,1.5073,1.5072,1.5103,1.5102,1.5101,1.5101,0,0,0,0,0,0,0,1.5142,1.5139,1.5109,1.5122,1.5123,1.5128,1.5127,1.5106,1.5111,1.5124,1.5126,1.5124,1.5112,1.5106,1.5104,1.5072,1.5103,1.5101,1.51,1.51,1.5007,1.5005,0,0,0,0,0,0,1.5142,1.514,1.5109,1.5108,1.5136,1.5126,1.5125,1.5117,1.5111,1.5112,1.5123,1.5125,1.5109,1.5106,1.5104,1.506,1.5101,1.51,1.5098,1.5008,1.5006,1.5005,0,0,0,0,0,0,1.5143,1.5139,1.511,1.5124,1.5121,1.5124,1.5115,1.5116,1.511,1.5111,1.5111,1.5117,1.5109,1.5106,1.508,1.506,1.5099,1.5097,1.501,1.5007,1.5005,1.4973,0,0,0,0,0,0,1.5144,1.5139,1.5127,1.5124,1.512,1.5087,1.5114,1.5115,1.5107,1.511,1.5105,1.5105,1.511,1.5083,1.5078,1.5058,1.5096,1.5011,1.5009,1.5006,1.4976,1.497,1.4965,0,0,0,0,0,1.5145,1.5118,1.5126,1.5122,1.5105,1.5086,1.5083,1.5091,1.5106,1.5092,1.5092,1.5105,1.5063,1.508,1.5075,1.5054,1.5013,1.5009,1.5006,1.4978,1.4971,1.4965,0,0,0,0,0,0,1.5118,1.5118,1.5127,1.5098,1.5092,1.509,1.5074,1.5084,1.5072,1.5075,1.5084,1.5083,1.5054,1.5052,1.507,1.5018,1.504,1.5036,1.502,1.5013,1.5008,1.5008,1.5094,0,0,0,0,0,1.5109,1.5095,1.5095,1.507,1.5066,1.507,1.5062,1.5069,1.5062,1.5059,1.5057,1.5049,1.5034,1.5024,1.501,1.4976,1.4973,1.4959,1.4953,1.4949,1.4944,1.4923,1.4915,1.4994,1.4994,1.4994,0,0,1.509,1.5088,1.5079,1.5064,1.506,1.5043,1.5068,1.505,1.5037,1.5056,1.5031,1.5029,1.5021,1.4989,1.4975,1.4986,1.4922,1.4945,1.4941,1.4939,1.4919,1.4911,1.4904,1.4992,1.4992,1.4993,0,0,1.5046,1.5044,1.5022,1.5017,1.501,1.5012,1.5007,1.5003,1.5002,1.4977,1.4991,1.4975,1.4949,1.4942,1.4935,1.4886,1.4896,1.4881,1.4852,1.483,1.4824,1.4819,1.4798,1.4791,1.4877,1.4877,1.4877,0,1.5022,1.4999,1.5009,1.4989,1.4981,1.4998,1.4974,1.4968,1.4957,1.4951,1.4964,1.493,1.4926,1.4891,1.4879,1.4874,1.4866,1.4881,1.4825,1.4819,1.4814,1.4794,1.4787,1.4875,1.4875,1.4875,1.4876,0,1.4969,1.4952,1.4935,1.4923,1.4913,1.4892,1.4896,1.4885,1.4892,1.4892,1.4865,1.486,1.4844,1.4837,1.4844,1.4803,1.4809,1.4823,1.4845,1.4804,1.4786,1.4779,1.4872,1.4873,1.4873,1.4874,0,0,1.4907,1.4901,1.4894,1.4887,1.488,1.4867,1.4845,1.483,1.4819,1.481,1.479,1.4767,1.4779,1.4771,1.4777,1.4758,1.4715,1.4774,1.4774,1.4761,1.4666,1.4654,1.4645,1.4723,1.4722,1.4721,1.4666,0,1.4861,1.4824,1.4831,1.4794,1.4777,1.4792,1.4772,1.4765,1.4764,1.4749,1.4748,1.473,1.4749,1.4744,1.4727,1.4724,1.4696,1.4729,1.4702,1.4701,1.4701,1.4636,1.4624,1.4572,1.4659,1.4658,1.4657,0,1.4803,1.4791,1.4752,1.4746,1.4739,1.4721,1.4706,1.4692,1.4683,1.4684,1.4673,1.4682,1.4657,1.4681,1.4646,1.4668,1.4657,1.4654,1.4653,1.4648,1.4675,1.4628,1.4557,1.4548,1.4646,1.4647,1.4648,0,1.4758,1.4733,1.4706,1.4701,1.4693,1.468,1.4676,1.4668,1.4657,1.4644,1.4637,1.4621,1.4612,1.4598,1.4601,1.4619,1.4564,1.4589,1.4562,1.4561,1.4548,1.4548,1.4471,1.4545,1.4545,1.4546,1.4546,0,1.4705,1.4679,1.4685,1.4668,1.464,1.4648,1.4618,1.4616,1.4609,1.459,1.4603,1.4584,1.4591,1.4572,1.4574,1.4543,1.4539,1.4537,1.4538,1.4535,1.4534,1.4526,1.4529,1.4544,1.4544,1.4544,1.4545,0,1.4649,1.4653,1.4623,1.4618,1.4616,1.4595,1.459,1.4573,1.4573,1.4549,1.4544,1.4543,1.4522,1.4524,1.45,1.4501,1.4462,1.4468,1.4465,1.4465,1.4436,1.4438,1.4349,1.4337,1.4421,1.4421,1.442,0,1.4614,1.4595,1.4587,1.4576,1.4571,1.4552,1.4541,1.4548,1.4536,1.4523,1.4506,1.4486,1.447,1.4435,1.4431,1.4412,1.4416,1.4386,1.4413,1.441,1.4412,1.4412,1.4408,1.438,1.4379,1.4379,1.4378,0,1.4549,1.4551,1.4536,1.452,1.4507,1.4495,1.4484,1.4473,1.4478,1.4464,1.4442,1.4429,1.4404,1.4383,1.4364,1.4358,1.4367,1.437,1.4362,1.4357,1.4355,1.4353,1.4447,1.4371,1.4372,1.4372,1.4373,1.4373,1.4501,1.4483,1.4475,1.4456,1.4449,1.4437,1.442,1.4418,1.44,1.4381,1.4386,1.436,1.4349,1.4325,1.4317,1.4296,1.4306,1.4295,1.4292,1.4289,1.4284,1.436,1.4293,1.4293,1.4293,1.4293,1.4293,0,1.4435,1.443,1.4413,1.4396,1.4381,1.4393,1.438,1.4366,1.4344,1.4333,1.4317,1.429,1.4269,1.4263,1.4242,1.4226,1.4229,1.422,1.422,1.4218,1.4277,1.4285,1.4217,1.4217,1.4217,1.4217,1.4217,1.4217,1.4398,1.4368,1.4369,1.4334,1.4329,1.4305,1.4296,1.4285,1.4276,1.4246,1.4229,1.4226,1.4216,1.4194,1.4174,1.4173,1.4163,1.4151,1.4151,1.4206,1.4214,1.4221,1.4228,1.415,1.415,1.4093,1.4092,1.4092]}]]